User: anonymous   Login
Location: Goheenville
(40.9070°N, 79.3720°W)
Time: 23:40:55
(UTC-05:00)
Language:

Cosmos 1727 Rocket - Orbit

View from above orbital plane
View from above orbital plane
View from above satellite
View from above satellite

Ground track
Ground track

The orbit data is extracted from the following two-line orbital elements,

1 16511U 86008B   14352.55389891  .00000001  00000-0 -14063-4 0  6424
2 16511 082.9434 175.9635 0023089 310.1954 122.3975 13.75776908450929
Epoch (UTC): 18 December 2014 13:17:36
Eccentricity: 0.0023089
inclination: 82.9434°
perigee height: 962 km
apogee height: 996 km
right ascension of ascending node: 175.9635°
argument of perigee: 310.1954°
revolutions per day: 13.75776908
mean anomaly at epoch: 122.3975°
orbit number at epoch: 45092

The dashed part of the orbit path shows where the satellite is in the earth's shadow,  

DLR